Weather Roundup
Issued by NWS Chicago, IL

Home | Current Version | Previous Version | Text Only | Print | Product List | Glossary On
Versions: 1 2 3 4 5 6 7 8 9 10 11 12 13 14 15 16 17 18 19 20 21 22 23 24 25 26 27 28 29 30 31 32 33 34 35 36 37 38 39 40 41 42 43 44 45 46 47 48 49 50
000
NZUS59 KLOT 251308
HRRLOT

CHICAGO AREA WEATHER ROUNDUP
NATIONAL WEATHER SERVICE CHICAGO/ROMEOVILLE IL
800 AM CDT THU MAY 25 2017

NOTE: "FAIR" INDICATES FEW OR NO CLOUDS BELOW 12,000 FEET WITH NO
SIGNIFICANT WEATHER AND/OR OBSTRUCTIONS TO VISIBILITY.

* THESE STATIONS ARE NOT UNDER NWS QUALITY CONTROL. THEY ALSO MAY NOT
  REPORT WEATHER SUCH AS PRECIPITATION OR FOG.

ILZ005-006-012>014-019>023-251400-
NORTHEAST ILLINOIS

CITY           SKY/WX    TMP DP  RH WIND       PRES   REMARKS
OHARE          CLOUDY    56  51  84 NW13      29.59R
MIDWAY         CLOUDY    56  51  84 NW12      29.59R
AURORA         CLOUDY    57  53  86 N14       29.62R
LANSING*       RAIN      53  53  99 N10       29.58R
JOLIET*        CLOUDY    57  54  88 N12       29.61R
WAUKEGAN       CLOUDY    54  51  90 N9G16     29.60S
DUPAGE AIRPORT CLOUDY    55  53  93 N13       29.60S
WHEELING       CLOUDY    55  52  89 N14       29.62R
KANKAKEE*      CLOUDY    56  53  89 NW10G17   29.59R
MORRIS*        CLOUDY    56  52  87 N3        29.61R
LEWIS AIRPORT* CLOUDY    55  54  95 N14       29.61R
NORTHERLY ISL    N/A     53  49  86 N16         N/A
$$

WIZ051-052-058>065-066-070>072-251400-
SOUTHEAST WISCONSIN

CITY           SKY/WX    TMP DP  RH WIND       PRES   REMARKS
MILWAUKEE      CLOUDY    56  51  84 N10       29.62R
KENOSHA*       CLOUDY    54  50  86 N9        29.62R
RACINE*        CLOUDY    53  49  86 N12G24    29.63R
WAUKESHA       CLOUDY    52  50  93 NW9       29.65R
WEST BEND      CLOUDY    54  52  94 N8        29.64S
$$

INZ001>003-010>013-019-020-251400-
NORTHWEST INDIANA

CITY           SKY/WX    TMP DP  RH WIND       PRES   REMARKS
GARY*          CLOUDY    54  50  87 NW20      29.58R
MICHIGAN CITY* NOT AVBL
RENSSELAER*    NOT AVBL
VALPARAISO     CLOUDY    53  51  93 N8        29.55R FOG
$$

LMZ740>746-251400-
SOUTHERN LAKE MICHIGAN

STATION/POSITION TIME  SKY/WX   TEMP WIND        PRES    VSBY
                                AIR  DIR/SP/G
                 (UTC)          (F)  (DEG/KT/KT) (MB)    (MI)
HARRISON CRIB    1240            50  340/ 22/ 25   N/A
BURNHAM HARBOR   1300            53  340/ 14/ 20   N/A
CALUMET HARBOR   1242            51  330/ 12/ 19   N/A
BURNS HARBOR     1240            50  340/ 17/ 22 1001.4R
MICHIGAN CITY    1240            49  330/ 21/ 24   N/A
$$

ABBREVIATIONS USED IN REMARKS
   TC - TEMPERATURE IN CELSIUS
  WCI - WIND CHILL INDEX
   HX - HEAT INDEX
  VSB - VISIBILITY
$$




USA.gov is the U.S. government's official web portal to all federal, state and local government web resources and services.